Location: Austin
(30.3000°N, 97.7500°W)
Time: 20:57:23
(UTC-06:00)

ARIANE 5 R/B - Pass Details

Date: 31 October 2024
Orbit: 746 x 794 km, 98.8° (Epoch: 05 November)

Event Time Altitude Azimuth Distance (km) Brightness Sun altitude
Rises 06:53:44 0° 14° (NNE) 3,206 5.8 -11.6°
Reaches altitude 10° 06:56:01 10° 15° (NNE) 2,284 5.0 -11.1°
Maximum altitude 07:01:03 82° 103° (ESE) 772 2.6 -10.1°
Drops below altitude 10° 07:06:08 10° 191° (S) 2,300 5.0 -9.0°
Sets 07:08:26 0° 192° (SSW) 3,231 5.7 -8.5°
